Temp
43 37 35 38 44 40 38 37 35 43 49 44 43 44 47 52 51 51 53 51 52 55 59 58 59 59 59 60 61 62 61 63 64 63 63 63 63 65 69 69 71 71 70 69
42 34 42 46 46 44 42 37 37 43 48 45 43 42 48 51 49 54 51 51 53 55 56 57 57 58 59 59 60 61 62 63 64 64 64 66 63 64 68 69 69 69 69 68
33 40 50 47 41 39 39 38 38 38 44 44 41 39 42 50 53 55 56 55 55 55 55 56 57 58 58 58 59 61 62 64 65 67 65 65 64 64 63 64 65 66 68 67
38 47 45 41 38 40 31 43 43 41 35 27 41 29 39 45 47 50 50 52 53 55 57 57 57 58 59 60 60 61 63 63 65 66 66 64 63 62 64 65 66 66 67 66
36 39 39 37 40 42 36 43 40 39 34 31 37 33 38 43 42 45 48 50 54 55 57 58 58 60 60 61 60 60 62 64 65 65 65 64 64 65 65 64 63 66 66 67
39 46 42 41 44 44 45 39 37 35 32 27 34 34 31 36 42 45 47 49 53 55 56 57 59 59 59 59 58 59 60 63 64 65 64 64 63 62 64 64 64 65 65 66
34 38 43 45 38 42 40 31 23 19 19 26 35 33 32 43 45 46 45 48 52 54 56 56 57 57 58 58 58 58 59 60 62 63 64 63 63 62 61 64 63 64 63 64
22 21 38 45 40 35 34 33 26 17 18 26 36 28 32 47 48 48 49 49 53 49 54 56 56 57 56 57 58 58 58 60 61 62 60 62 62 61 62 62 61 63 64 64
25 28 42 43 43 40 34 29 37 31 32 22 29 34 41 46 46 46 47 49 51 52 50 52 55 56 58 57 58 59 58 59 60 61 61 61 61 61 62 62 62 60 60 60
33 23 37 41 42 42 37 39 28 27 15 20 27 28 31 37 40 44 46 46 49 52 53 53 52 55 56 57 58 59 59 59 59 59 61 60 60 61 60 60 60 59 60 60
35 29 31 36 32 30 32 29 30 28 27 16 14 28 39 40 43 40 44 48 48 49 50 52 53 55 56 57 57 58 59 59 59 60 59 59 59 60 60 60 60 60 60 59
35 30 19 31 38 39 36 31 27 20 19 26 21 28 43 42 45 43 43 46 49 50 49 50 52 53 53 55 56 57 58 59 59 60 60 59 59 60 59 60 60 60 60 60
36 22 10 21 29 34 30 33 33 26 22 22 16 24 44 43 45 46 42 44 46 48 49 49 51 51 51 53 54 55 55 56 58 60 60 60 59 59 60 60 61 62 61 60
40 23 18 13 20 27 25 31 32 26 15 17 22 24 34 36 42 43 41 42 43 45 46 47 47 49 50 51 52 51 53 54 56 57 58 59 58 59 58 57 57 57 59 59
32 17 24 28 31 32 30 31 32 20 26 18 26 28 32 34 35 37 41 42 43 44 45 45 44 45 47 49 49 50 51 52 53 54 54 54 56 57 56 54 54 54 54 54
31 17 18 18 31 30 29 32 32 33 32 32 31 31 35 37 35 36 38 41 41 42 43 44 44 44 45 43 46 48 49 50 52 51 51 52 53 53 52 52 52 51 51 51
26 19 17 18 27 23 18 31 33 33 35 33 25 33 35 37 41 37 37 39 40 41 42 42 42 42 42 43 45 45 46 49 50 50 50 51 51 50 50 50 50 49 49 49
26 20 21 15 18 12 31 38 37 35 36 36 34 34 37 39 40 38 38 37 39 41 41 42 41 42 42 42 43 44 46 47 48 48 49 49 49 48 48 48 48 47 46 46
29 25 19 16 14 25 30 35 34 32 32 36 35 36 38 39 38 37 39 39 38 39 41 41 41 42 41 41 41 43 44 44 45 45 46 47 48 47 46 46 46 45 42 41
31 27 21 18 17 19 31 35 40 38 26 37 37 36 36 36 33 34 38 40 41 42 42 41 41 42 41 41 41 41 41 41 41 43 44 45 47 46 45 45 44 43 42 41
17 17 18 17 16 25 34 38 39 23 31 37 38 37 36 33 35 38 40 41 40 41 41 41 40 40 40 40 41 40 39 39 41 43 44 44 45 45 44 43 42 41 40 41
25 19 17 20 17 20 37 36 32 36 36 38 38 37 37 38 38 38 39 39 41 41 41 41 40 39 40 40 40 38 38 40 41 41 42 42 42 43 44 42 40 39 39 38
25 30 27 28 28 37 39 38 40 40 39 38 38 39 39 39 38 39 39 36 38 40 41 41 40 39 39 39 38 37 37 39 40 40 41 41 42 42 41 40 38 37 37 37
30 33 30 32 33 35 39 40 40 40 40 40 39 39 39 37 38 37 37 38 38 39 40 41 41 39 38 37 38 36 37 38 39 39 39 41 43 45 44 43 41 40 39 39
32 32 30 29 34 34 38 38 40 40 40 39 39 39 38 37 37 37 36 37 38 38 39 40 40 39 38 38 37 37 37 37 38 38 38 42 44 42 43 43 42 41 42 43
32 32 31 32 38 38 37 38 39 38 38 38 38 37 38 38 37 38 37 38 37 37 38 38 39 39 40 42 40 38 37 37 37 38 40 39 41 41 41 41 41 43 43 44
MSLP
1014.28 1014.41 1013.82 1013.21 1012.85 1012.83 1012.68 1012.36 1011.46 1010.17 1009.31 1008.86 1007.74 1007.07 1005.97 1005.31 1004.51 1004.23 1003.69 1003.41 1003.35 1003.11 1003.02 1003.75 1003.86 1004.46 1006.07 1007.25 1007.08 1007.41 1007.23 1006.92 1007.69 1008.56 1008.53 1009.61 1010.08 1010.77 1011.17 1011.51 1011.77 1012.53 1013.61 1014.26
1014.18 1013.48 1012.55 1012.21 1012.16 1012.13 1011.83 1011.70 1010.91 1009.73 1008.93 1008.61 1007.63 1007.06 1006.61 1004.77 1003.72 1003.48 1003.51 1002.95 1002.58 1002.48 1001.94 1002.82 1003.89 1004.41 1005.78 1006.53 1006.18 1006.98 1007.55 1007.68 1007.94 1008.54 1008.52 1008.74 1010.07 1010.01 1010.70 1011.23 1011.68 1012.50 1013.24 1013.97
1013.62 1012.62 1011.97 1011.80 1011.76 1011.78 1011.52 1011.16 1010.78 1010.26 1008.93 1007.84 1007.78 1007.15 1006.54 1005.05 1004.16 1003.69 1002.89 1002.07 1002.17 1002.53 1003.00 1003.59 1004.27 1005.16 1005.79 1004.49 1005.54 1006.95 1007.02 1007.71 1007.94 1008.10 1008.51 1009.04 1009.93 1010.30 1011.07 1011.57 1011.82 1012.38 1012.94 1013.69
1013.12 1012.25 1011.86 1011.72 1011.82 1011.83 1011.49 1010.78 1010.79 1010.33 1010.08 1009.46 1008.25 1008.05 1007.34 1006.35 1005.17 1004.28 1003.82 1003.05 1002.24 1002.77 1003.34 1003.65 1004.30 1004.53 1004.33 1004.18 1006.27 1006.55 1006.97 1007.40 1007.63 1007.84 1007.97 1008.28 1008.99 1010.06 1011.02 1011.04 1011.85 1012.31 1012.71 1013.45
1013.08 1012.33 1011.90 1011.88 1011.63 1011.48 1011.37 1010.82 1010.89 1010.67 1010.41 1010.17 1008.99 1008.87 1008.82 1007.68 1006.84 1005.98 1005.15 1004.03 1003.26 1002.79 1002.95 1004.00 1004.68 1004.55 1005.03 1005.08 1006.34 1006.80 1007.06 1007.08 1007.14 1007.49 1007.79 1008.32 1008.61 1009.37 1010.33 1011.43 1012.04 1012.19 1012.83 1013.23
1013.28 1012.44 1012.08 1011.81 1011.28 1011.27 1011.08 1010.77 1010.67 1010.67 1010.92 1011.14 1010.31 1009.81 1009.81 1008.82 1008.06 1006.88 1006.08 1005.00 1004.06 1003.56 1003.71 1004.08 1004.58 1004.57 1005.42 1006.46 1006.96 1007.21 1006.52 1006.58 1006.72 1006.90 1007.59 1008.18 1008.65 1009.32 1009.93 1010.80 1011.79 1012.24 1012.77 1013.27
1014.29 1013.22 1012.57 1012.15 1011.69 1011.26 1011.39 1011.26 1011.69 1012.05 1012.11 1011.98 1011.47 1011.17 1011.84 1010.25 1008.85 1008.65 1007.91 1006.70 1005.38 1004.42 1004.12 1004.26 1004.68 1005.86 1006.22 1006.79 1006.98 1006.90 1006.95 1006.54 1006.49 1006.39 1007.37 1008.12 1008.61 1009.34 1010.34 1010.86 1011.31 1011.81 1012.66 1013.16
1015.40 1014.31 1013.40 1012.61 1012.50 1012.45 1012.12 1012.26 1012.74 1012.87 1012.63 1012.76 1012.07 1012.69 1012.52 1011.25 1010.34 1009.26 1008.63 1007.62 1006.74 1005.81 1005.28 1005.55 1005.74 1006.46 1006.68 1007.04 1007.07 1007.27 1007.06 1006.34 1005.84 1006.87 1007.56 1008.21 1009.13 1009.61 1010.00 1010.99 1011.35 1011.61 1012.10 1012.42
1016.04 1015.13 1014.10 1013.35 1012.87 1012.87 1012.60 1013.05 1013.48 1013.50 1013.53 1013.66 1014.45 1013.46 1012.36 1012.05 1011.25 1010.59 1009.33 1008.47 1008.00 1007.52 1007.09 1006.52 1006.49 1006.63 1006.88 1007.20 1007.27 1007.15 1007.38 1007.52 1007.31 1007.43 1008.16 1009.08 1009.40 1010.07 1010.08 1011.06 1011.60 1012.09 1012.24 1012.68
1016.44 1015.96 1015.31 1014.31 1013.65 1013.42 1013.58 1013.84 1014.18 1014.46 1015.22 1015.63 1015.58 1014.69 1014.34 1013.50 1012.70 1011.59 1010.57 1009.58 1009.00 1008.42 1008.10 1008.12 1007.95 1007.50 1007.53 1007.37 1007.30 1007.55 1007.67 1008.10 1007.97 1008.09 1008.54 1009.04 1009.61 1010.09 1010.57 1011.34 1012.00 1012.37 1012.75 1012.97
1016.86 1016.99 1016.76 1015.83 1015.56 1015.50 1014.84 1015.23 1015.54 1016.09 1016.45 1016.57 1016.48 1016.13 1015.35 1014.32 1013.52 1012.81 1011.81 1011.09 1010.15 1009.45 1009.22 1008.96 1008.82 1008.40 1008.21 1007.52 1007.35 1007.82 1008.07 1008.48 1008.77 1008.91 1009.19 1009.57 1009.87 1009.98 1010.40 1011.27 1011.83 1012.11 1012.75 1013.20
1017.63 1018.03 1018.30 1017.78 1016.67 1016.23 1016.38 1016.61 1016.82 1017.33 1018.02 1017.57 1017.08 1017.02 1015.86 1014.84 1013.92 1013.28 1012.73 1011.93 1011.35 1010.90 1010.58 1010.16 1009.65 1009.31 1008.91 1008.51 1008.36 1008.31 1008.36 1008.18 1008.59 1008.97 1009.36 1009.78 1010.00 1010.32 1010.61 1011.18 1011.61 1012.13 1012.80 1013.16
1018.18 1019.31 1019.87 1019.02 1018.01 1017.15 1017.41 1017.32 1017.35 1017.77 1018.17 1018.60 1018.07 1017.35 1016.13 1015.36 1014.81 1014.48 1013.94 1013.26 1012.68 1012.13 1011.64 1011.19 1010.75 1010.15 1009.78 1009.15 1009.09 1009.04 1009.19 1009.10 1008.95 1009.11 1009.38 1009.69 1010.22 1010.74 1010.88 1011.09 1011.30 1011.73 1012.42 1012.78
1018.53 1020.20 1020.91 1020.70 1020.05 1019.39 1018.44 1017.77 1017.49 1017.76 1018.74 1018.59 1018.09 1017.35 1016.57 1016.23 1015.90 1015.55 1015.09 1014.59 1014.00 1013.74 1013.28 1012.68 1011.96 1011.54 1011.23 1010.75 1010.40 1010.30 1009.81 1009.73 1009.53 1009.57 1009.89 1010.00 1009.97 1010.91 1011.13 1011.25 1011.52 1011.65 1011.53 1011.59
1019.58 1021.39 1021.52 1021.07 1020.29 1019.39 1018.65 1018.00 1017.58 1017.90 1018.02 1018.05 1017.66 1017.15 1016.65 1016.60 1016.50 1016.24 1015.91 1015.43 1015.09 1014.83 1014.19 1013.93 1013.49 1013.26 1012.78 1012.39 1011.72 1011.32 1010.92 1010.77 1010.42 1010.25 1010.40 1010.79 1010.84 1011.02 1010.95 1011.30 1011.67 1011.86 1012.02 1012.08
1020.68 1021.93 1022.21 1021.74 1020.45 1019.58 1018.60 1017.66 1017.20 1017.15 1017.10 1017.13 1017.13 1016.78 1016.51 1016.27 1016.46 1016.70 1016.73 1016.48 1015.98 1015.60 1015.41 1015.36 1014.88 1014.55 1013.94 1013.54 1013.00 1012.69 1012.22 1011.88 1011.18 1011.03 1011.15 1011.69 1011.97 1011.88 1011.98 1011.48 1011.81 1012.46 1012.73 1012.81
1021.40 1022.41 1022.98 1022.48 1021.06 1019.73 1018.73 1016.89 1016.57 1016.40 1016.31 1016.45 1016.66 1016.38 1016.38 1016.21 1016.33 1016.59 1016.62 1016.68 1016.59 1016.45 1016.03 1015.70 1015.80 1015.48 1015.08 1014.55 1014.14 1013.75 1013.07 1012.37 1011.84 1011.88 1012.04 1012.02 1012.13 1012.25 1012.43 1012.43 1012.05 1012.67 1012.90 1012.94
1021.70 1022.67 1023.06 1022.95 1021.85 1020.12 1017.35 1016.19 1015.88 1016.06 1015.93 1015.91 1016.10 1016.18 1016.32 1016.21 1016.41 1016.77 1016.77 1016.71 1016.72 1016.70 1016.50 1016.30 1015.96 1015.62 1015.48 1014.97 1014.47 1014.00 1013.38 1013.11 1012.95 1012.77 1012.73 1012.54 1012.54 1012.67 1012.61 1012.67 1012.60 1012.73 1013.09 1013.30
1021.69 1022.41 1023.15 1023.10 1022.18 1019.46 1017.08 1016.14 1015.84 1015.95 1015.59 1015.52 1016.04 1016.30 1016.27 1016.24 1016.42 1016.67 1016.65 1016.53 1016.51 1016.54 1016.51 1016.31 1016.06 1015.89 1015.62 1015.34 1014.93 1014.70 1014.19 1013.90 1013.75 1013.76 1013.36 1013.21 1013.09 1013.12 1013.06 1013.12 1013.12 1013.33 1013.55 1013.90
1021.86 1022.34 1022.97 1023.11 1021.82 1019.16 1016.42 1015.62 1015.45 1015.68 1015.78 1015.18 1015.73 1016.28 1016.60 1016.78 1017.11 1016.64 1016.45 1016.42 1016.39 1016.36 1016.31 1016.32 1016.31 1016.12 1015.86 1015.47 1015.17 1014.96 1014.95 1014.82 1014.62 1014.21 1013.88 1013.57 1013.31 1013.46 1013.40 1013.33 1013.46 1013.39 1013.54 1013.83
1022.10 1022.53 1022.67 1022.36 1021.06 1018.06 1015.96 1015.61 1015.68 1016.04 1015.63 1015.06 1015.59 1016.07 1016.67 1016.79 1016.59 1016.57 1016.40 1016.24 1016.29 1016.38 1016.27 1016.20 1016.35 1016.47 1016.46 1016.12 1015.79 1015.64 1015.36 1015.15 1014.96 1014.52 1014.21 1013.89 1013.60 1013.47 1013.21 1013.25 1013.52 1013.47 1013.63 1013.78
1021.03 1021.62 1021.76 1021.23 1020.07 1017.59 1015.61 1015.93 1015.80 1014.79 1014.73 1014.98 1015.56 1015.87 1016.28 1016.20 1016.35 1016.37 1016.39 1016.35 1016.27 1016.20 1016.06 1016.14 1016.34 1016.58 1016.65 1016.63 1016.45 1016.33 1016.11 1015.80 1015.27 1014.79 1014.28 1013.90 1013.63 1013.46 1013.41 1013.58 1013.68 1013.70 1013.82 1014.01
1019.96 1019.22 1019.30 1019.15 1016.97 1015.35 1014.92 1014.19 1014.05 1014.35 1014.68 1015.06 1015.27 1015.53 1015.88 1016.16 1016.32 1016.39 1016.29 1016.41 1016.54 1016.41 1016.23 1016.15 1016.32 1016.48 1016.54 1016.58 1016.52 1016.65 1016.59 1016.24 1015.81 1015.34 1014.83 1014.32 1013.76 1013.55 1013.40 1013.39 1013.65 1013.92 1014.09 1014.29
1018.63 1018.16 1018.17 1017.65 1015.29 1014.86 1014.48 1014.04 1014.01 1014.15 1014.47 1014.67 1014.90 1015.27 1015.67 1016.03 1016.37 1016.42 1016.49 1016.62 1016.54 1016.36 1016.32 1016.13 1016.11 1016.36 1016.57 1016.55 1016.60 1016.62 1016.38 1016.02 1015.72 1015.40 1015.02 1014.53 1014.01 1013.57 1013.25 1013.28 1013.56 1013.79 1014.06 1014.25
1017.66 1017.68 1017.11 1016.45 1014.82 1014.35 1013.88 1013.50 1013.54 1014.09 1014.27 1014.67 1015.03 1015.30 1015.65 1015.99 1016.29 1016.37 1016.47 1016.56 1016.33 1016.19 1016.05 1016.16 1016.14 1016.17 1016.22 1016.36 1016.48 1016.54 1016.31 1015.98 1015.55 1015.34 1015.07 1014.83 1014.47 1014.14 1013.90 1013.65 1013.56 1013.54 1013.44 1013.52
1016.41 1015.52 1015.64 1014.41 1013.10 1013.20 1012.87 1012.54 1013.05 1013.96 1014.24 1014.48 1014.96 1015.43 1015.63 1015.85 1016.09 1016.18 1016.37 1016.13 1016.10 1016.00 1015.91 1015.90 1015.88 1016.00 1015.96 1015.94 1016.17 1016.32 1016.20 1015.93 1015.56 1015.33 1015.10 1014.91 1014.63 1014.36 1014.18 1014.04 1013.73 1013.51 1013.45 1013.28
Wind_Speed
4 3 7 10 8 9 6 9 12 12 12 8 9 18 20 19 16 16 13 8 7 12 7 16 11 13 12 8 8 7 4 2 6 6 12 7 9 7 9 9 13 15 12 12
4 7 12 12 11 11 11 9 12 8 12 7 13 13 13 15 6 9 3 10 9 7 9 14 13 8 10 13 8 8 9 6 7 7 7 10 8 5 9 9 12 12 13 11
6 6 6 3 5 6 5 5 5 10 12 5 5 4 19 24 10 9 7 10 11 15 15 14 13 12 12 13 10 11 12 10 10 12 8 8 9 6 4 5 7 8 11 9
5 3 4 5 4 3 4 3 7 11 8 4 3 4 18 20 24 20 18 16 7 13 12 12 11 9 5 9 5 5 12 12 10 12 12 18 11 13 6 8 8 7 10 8
8 3 4 2 5 2 7 8 6 7 5 3 4 3 12 15 17 15 20 15 5 6 14 12 9 11 7 10 6 5 5 10 12 13 10 9 12 10 10 6 8 8 7 9
5 5 0 3 8 4 7 3 3 1 1 4 9 4 8 16 16 18 23 22 13 2 5 11 8 10 8 4 3 3 3 13 11 15 14 13 10 6 9 12 10 8 7 7
7 5 6 3 7 5 8 5 3 5 5 3 5 8 5 16 15 14 16 19 19 14 7 9 11 7 8 4 3 2 3 6 11 12 16 15 13 10 4 10 10 10 7 6
5 9 6 9 1 5 5 3 2 2 1 3 6 4 7 13 10 12 12 16 16 16 10 7 5 4 6 4 3 4 2 6 9 10 8 10 10 6 6 4 1 9 10 10
5 5 6 5 4 4 7 4 1 2 3 6 4 7 2 18 15 8 13 17 16 11 10 8 7 3 6 5 4 3 2 4 3 7 7 9 7 8 8 8 6 3 4 4
5 3 3 7 8 8 4 4 4 4 4 5 2 3 4 13 13 14 15 13 15 14 14 10 6 6 3 3 2 3 5 4 2 3 7 5 5 5 7 6 7 4 4 5
4 4 7 5 6 6 7 6 5 3 3 5 3 3 9 10 11 11 13 13 13 14 13 11 8 8 6 5 1 2 5 6 6 5 4 3 3 3 5 5 4 4 3 5
4 3 1 2 4 4 4 4 3 4 5 3 4 2 6 8 10 11 13 14 14 13 12 12 11 11 10 9 9 6 2 7 9 9 9 7 4 3 3 5 5 6 9 7
3 3 3 9 8 7 6 6 3 4 3 3 4 3 5 8 10 11 10 11 11 14 15 13 12 12 11 12 11 10 8 6 0 9 10 8 5 2 5 6 8 10 11 13
4 4 6 6 6 4 5 6 4 4 5 2 1 3 5 8 9 9 9 9 9 9 10 12 13 13 12 10 9 8 8 7 6 5 4 6 6 5 3 4 1 2 5 9
5 3 3 2 4 3 3 4 6 4 3 4 3 3 1 3 3 5 5 7 9 10 12 11 11 10 10 11 10 9 8 7 6 6 8 6 3 4 7 5 4 4 3 2
4 1 3 5 4 4 3 4 3 3 2 3 3 3 1 3 2 5 6 5 7 8 8 9 10 10 11 10 9 8 7 6 6 6 6 5 4 4 1 5 7 5 4 4
3 4 3 4 6 6 7 4 4 2 3 3 3 4 1 2 3 2 4 5 6 6 7 8 7 6 6 8 8 7 6 6 7 6 5 5 4 3 1 1 6 5 4 3
3 3 3 3 5 4 7 3 1 4 6 5 2 3 5 1 4 2 1 3 4 5 6 6 6 6 6 6 8 7 7 7 6 6 5 4 3 2 1 1 4 3 2 3
3 3 3 3 2 6 3 4 4 4 6 7 6 5 4 2 2 3 1 1 2 3 3 4 5 4 6 7 7 7 8 7 7 7 7 6 3 1 2 2 2 2 3 1
4 5 5 2 2 5 4 2 4 4 5 6 7 7 5 4 2 4 1 2 3 4 2 4 4 3 6 7 6 6 6 6 7 8 8 6 5 4 4 3 4 3 3 3
3 3 3 2 3 9 6 5 3 1 7 6 7 7 6 5 5 3 2 3 2 1 3 2 3 3 3 5 6 7 6 7 6 6 6 6 6 6 5 3 2 2 2 3
6 5 3 2 1 7 6 4 7 6 1 6 6 6 7 6 3 3 2 1 4 5 3 3 3 3 3 4 3 4 6 7 8 8 7 7 6 4 3 3 2 1 1 3
3 7 5 9 8 5 9 6 6 5 5 5 6 6 7 6 6 4 3 2 2 5 4 1 1 2 3 4 3 4 5 5 6 6 6 6 5 4 2 1 1 1 1 3
4 4 4 2 4 10 10 8 5 7 7 5 5 6 7 5 5 5 4 4 4 4 4 2 1 2 3 3 3 3 5 5 4 5 6 5 4 3 2 2 2 3 3 3
5 6 5 7 10 6 11 10 9 7 6 5 5 6 6 5 5 5 4 5 5 5 4 2 2 3 3 2 3 4 5 5 5 4 4 5 5 5 5 3 3 3 4 5
7 9 7 9 10 5 7 4 9 10 9 9 8 6 5 5 5 4 6 6 4 5 3 3 3 2 1 1 2 2 3 4 4 4 3 3 3 3 3 4 4 3 5 7
Wind_Direction
197 219 250 238 215 220 247 265 272 290 289 305 255 253 270 287 257 262 257 256 225 237 162 153 148 128 131 151 144 206 248 127 139 173 153 163 163 162 169 166 161 163 170 168
243 243 252 250 263 258 259 252 283 289 274 249 271 275 325 313 270 263 209 250 206 182 113 110 125 132 161 161 148 165 202 208 188 178 178 158 166 162 160 158 158 156 158 162
194 258 296 36 328 344 289 251 327 309 320 298 309 292 7 357 9 353 310 299 181 148 155 145 146 160 182 140 139 190 192 204 197 172 156 141 143 124 135 150 145 156 159 160
252 268 347 334 309 30 301 268 339 318 349 309 2 295 6 355 9 8 7 353 125 146 142 146 162 159 158 118 163 164 189 189 189 174 163 160 164 164 170 163 166 161 163 164
259 286 296 333 272 292 261 283 271 278 295 323 354 65 349 356 27 1 8 354 8 153 132 145 152 146 136 128 152 167 195 203 190 175 167 166 157 159 157 165 177 167 170 172
262 280 349 292 284 278 313 263 306 228 125 53 2 39 349 359 4 14 5 5 12 292 114 129 117 93 104 118 149 279 181 190 194 185 165 164 162 139 167 173 173 174 176 181
337 322 323 352 334 327 357 33 7 17 30 82 343 58 22 350 359 11 6 353 11 351 87 89 96 132 120 144 185 232 322 268 154 159 169 164 168 171 204 187 177 166 171 179
51 346 358 326 330 271 310 19 82 102 107 81 25 43 28 3 14 358 13 9 10 15 35 71 39 74 111 143 189 187 82 349 117 133 115 157 163 171 186 217 202 182 183 187
14 305 340 351 326 30 320 32 27 30 2 64 18 12 342 358 8 354 357 28 4 28 37 24 2 45 178 170 209 150 80 66 31 143 143 133 131 181 172 182 199 196 163 165
316 337 7 310 10 358 73 300 48 3 72 71 38 38 18 353 360 15 13 13 10 18 37 37 20 351 308 304 142 212 165 153 110 18 130 119 144 141 133 143 167 169 162 157
350 90 312 11 15 12 357 10 22 102 34 127 135 57 12 356 1 5 12 17 17 15 15 27 25 20 3 355 125 163 185 181 164 165 120 125 194 158 124 153 185 188 182 195
324 111 22 323 289 321 91 357 70 95 315 27 127 71 14 349 25 19 6 10 19 23 19 17 21 26 28 27 41 41 232 192 190 182 185 181 189 177 174 192 177 169 197 207
321 31 23 343 348 360 29 331 25 110 38 27 100 226 28 360 32 16 18 15 19 23 14 16 20 23 21 28 24 28 32 45 244 192 181 189 179 218 257 251 247 234 212 200
80 78 139 167 212 230 332 330 9 88 80 210 183 270 337 360 18 25 8 9 12 25 22 16 17 17 15 18 20 12 23 22 43 67 188 158 141 216 202 172 171 202 206 204
78 83 2 284 288 291 251 295 341 63 181 121 222 228 339 336 17 353 353 11 20 14 20 13 11 7 15 14 12 5 11 15 29 62 60 36 99 170 152 132 111 86 74 73
10 147 64 325 310 15 303 299 293 270 247 284 239 270 192 297 127 48 30 23 22 10 15 10 6 3 9 4 3 360 3 8 33 48 69 81 68 70 301 140 126 133 138 134
59 110 61 291 348 354 353 227 201 245 207 186 225 233 160 273 98 27 7 36 14 2 358 2 360 1 1 357 346 358 352 5 34 45 42 57 75 102 92 40 135 136 152 132
116 88 108 241 10 20 245 296 224 220 242 218 207 223 219 98 92 108 93 38 13 353 344 341 343 353 358 348 357 344 3 13 24 28 24 30 58 94 58 66 74 80 82 157
71 106 62 104 205 288 273 238 198 177 288 199 196 208 235 16 39 260 158 49 355 336 322 320 332 337 350 1 352 359 14 15 20 14 7 349 335 271 176 175 172 153 132 203
75 79 111 68 130 218 244 190 129 91 288 190 170 194 204 116 212 261 254 285 342 349 336 350 353 351 1 347 360 29 18 10 4 349 335 329 327 289 256 233 205 162 159 190
24 10 142 179 256 285 240 153 136 79 239 169 171 186 186 203 195 219 280 320 325 304 344 24 26 29 11 353 6 17 7 3 322 321 321 326 326 312 283 268 212 194 192 178
182 148 212 98 17 298 153 75 168 219 97 164 183 191 193 221 237 261 250 295 330 341 337 33 25 11 8 14 37 28 12 327 325 326 327 328 327 321 316 271 285 328 195 210
249 191 187 186 217 237 211 197 211 177 161 198 188 196 200 197 207 215 254 303 311 307 318 316 46 355 344 359 37 21 334 332 328 334 329 320 322 328 345 227 215 333 218 217
248 174 223 360 264 228 222 236 212 190 192 182 187 170 174 182 192 226 257 277 289 293 287 263 283 312 304 338 10 1 332 329 360 349 343 329 330 286 245 195 182 184 197 219
204 143 202 261 277 282 268 228 194 197 169 154 162 168 184 180 209 218 240 258 264 271 272 270 268 246 270 341 7 350 344 343 359 358 354 348 356 352 319 276 229 218 220 210
186 193 177 223 217 190 240 231 168 172 185 179 167 176 185 188 207 230 253 244 238 253 258 275 286 280 309 95 103 348 331 354 352 348 353 350 343 338 335 322 311 276 276 261